User: anonymous   Login
Location: Caltech
(34.1382°N, 118.1253°W)
Time: 22:46:46
(UTC-07:00)
Language:

Meteor 1-11 Rocket - Orbit

View from above orbital plane
View from above orbital plane
View from above satellite
View from above satellite

Ground track
Ground track

The orbit data is extracted from the following two-line orbital elements,

1 05918U 72022B   18110.89164952  .00000046  00000-0  20331-4 0  9994
2 05918  81.2407  28.2085 0058400 181.1884 178.9155 14.05839203361236
Epoch (UTC): 20 April 2018 21:23:58
Eccentricity: 0.0058400
inclination: 81.2407°
perigee height: 831 km
apogee height: 916 km
right ascension of ascending node: 28.2085°
argument of perigee: 181.1884°
revolutions per day: 14.05839203
mean anomaly at epoch: 178.9155°
orbit number at epoch: 36123

The dashed part of the orbit path shows where the satellite is in the earth's shadow,  

DLR